Zurück zum Katalog

YAOGAN-30 V

AktivMilitärVLEO
NORAD 46808·PAYLOAD·🇨🇳 China

Gestartet Oct 26, 2020 von Xichang Satellite Launch Center

Loading…

Nächste Überflüge (nächste 24 Stunden)

TLE

AktuellSource: Space-Track

Epoche: Sep 14, 2026, 23:23 UTC

1 46808U 20076B   26257.97449574  .00002104  00000-0  15532-3 0  9998
2 46808  34.9940 263.5879 0000415  21.9369 338.1358 15.03014759321740

Verfolge YAOGAN-30 V in Echtzeit mit AllMySat

Download on the App Store